Previsão horária em Aliaga

Hoje, 19 Junho, Sábado

Tempo Temperatura Precipitação Vento Pressão Humidade
00:00 +16°C° 0 mm 2 m/s 658 mmHg 72%
01:00 +16°C° 0 mm 2 m/s 658 mmHg 70%
02:00 +16°C° 0 mm 2 m/s 657 mmHg 68%
03:00 +16°C° 0 mm 2 m/s 657 mmHg 66%
04:00 +16°C° 0 mm 1 m/s 657 mmHg 66%
05:00 +16°C° 0 mm 1 m/s 657 mmHg 66%
06:00 +16°C° 0 mm 1 m/s 657 mmHg 69%
07:00 +18°C° 0 mm 1 m/s 658 mmHg 64%
08:00 +19°C° 0 mm 2 m/s 658 mmHg 59%
09:00 +20°C° 0 mm 2 m/s 658 mmHg 54%
10:00 +21°C° 0.1 mm 3 m/s 658 mmHg 50%
11:00 +22°C° 0.1 mm 4 m/s 658 mmHg 47%
12:00 +23°C° 0.1 mm 4 m/s 658 mmHg 43%
13:00 +22°C° 0.1 mm 4 m/s 658 mmHg 50%
14:00 +21°C° 0.1 mm 4 m/s 658 mmHg 56%
15:00 +20°C° 0.1 mm 4 m/s 657 mmHg 62%
16:00 +20°C° 0.2 mm 4 m/s 657 mmHg 61%
17:00 +20°C° 0.2 mm 4 m/s 657 mmHg 60%
18:00 +21°C° 0.2 mm 4 m/s 657 mmHg 59%
19:00 +19°C° 0.2 mm 3 m/s 657 mmHg 65%
20:00 +18°C° 0.2 mm 3 m/s 657 mmHg 70%
21:00 +16°C° 0.2 mm 2 m/s 657 mmHg 76%
22:00 +16°C° 0 mm 2 m/s 657 mmHg 77%
23:00 +15°C° 0 mm 2 m/s 656 mmHg 78%

Amanhã, 20 Junho, Domingo

Tempo Temperatura Precipitação Vento Pressão Humidade
00:00 +15°C° 0 mm 1 m/s 656 mmHg 79%
01:00 +15°C° 0.3 mm 2 m/s 656 mmHg 80%
02:00 +14°C° 0.3 mm 2 m/s 655 mmHg 81%
03:00 +14°C° 0.3 mm 2 m/s 655 mmHg 82%
04:00 +13°C° 0.3 mm 3 m/s 655 mmHg 81%
05:00 +13°C° 0.3 mm 3 m/s 654 mmHg 80%
06:00 +13°C° 0.3 mm 3 m/s 654 mmHg 78%
07:00 +15°C° 0 mm 4 m/s 654 mmHg 68%
08:00 +16°C° 0 mm 5 m/s 655 mmHg 57%
09:00 +17°C° 0 mm 6 m/s 655 mmHg 47%
10:00 +19°C° 0 mm 6 m/s 655 mmHg 44%
11:00 +20°C° 0 mm 7 m/s 655 mmHg 41%
12:00 +20°C° 0 mm 7 m/s 655 mmHg 38%
13:00 +20°C° 0 mm 8 m/s 655 mmHg 40%
14:00 +19°C° 0 mm 9 m/s 655 mmHg 41%
15:00 +19°C° 0 mm 9 m/s 655 mmHg 43%
16:00 +19°C° 0 mm 9 m/s 655 mmHg 45%
17:00 +18°C° 0 mm 9 m/s 655 mmHg 48%
18:00 +18°C° 0 mm 9 m/s 655 mmHg 50%
19:00 +16°C° 0 mm 8 m/s 655 mmHg 57%
20:00 +15°C° 0 mm 7 m/s 655 mmHg 64%
21:00 +13°C° 0 mm 6 m/s 655 mmHg 71%
22:00 +13°C° 0 mm 6 m/s 654 mmHg 73%
23:00 +11°C° 0 mm 7 m/s 654 mmHg 76%

Depois de amanhã, 21 Junho, Segunda-feira

Tempo Temperatura Precipitação Vento Pressão Humidade
00:00 +11°C° 0 mm 7 m/s 654 mmHg 79%
01:00 +10°C° 0 mm 6 m/s 654 mmHg 79%
02:00 +10°C° 0 mm 5 m/s 654 mmHg 79%
03:00 +10°C° 0 mm 3 m/s 654 mmHg 80%
04:00 +11°C° 0 mm 4 m/s 654 mmHg 77%
05:00 +11°C° 0 mm 4 m/s 654 mmHg 74%
06:00 +11°C° 0 mm 4 m/s 654 mmHg 72%
07:00 +13°C° 0 mm 5 m/s 655 mmHg 64%
08:00 +14°C° 0 mm 6 m/s 655 mmHg 57%
09:00 +16°C° 0 mm 7 m/s 655 mmHg 49%
10:00 +17°C° 0 mm 7 m/s 656 mmHg 43%
11:00 +18°C° 0 mm 7 m/s 656 mmHg 37%
12:00 +21°C° 0 mm 7 m/s 656 mmHg 31%
13:00 +21°C° 0 mm 7 m/s 656 mmHg 29%
14:00 +22°C° 0 mm 7 m/s 656 mmHg 27%
15:00 +22°C° 0 mm 7 m/s 656 mmHg 25%
16:00 +21°C° 0 mm 7 m/s 656 mmHg 27%
17:00 +20°C° 0 mm 7 m/s 655 mmHg 30%
18:00 +20°C° 0 mm 7 m/s 655 mmHg 32%
19:00 +17°C° 0 mm 5 m/s 655 mmHg 39%
20:00 +15°C° 0 mm 4 m/s 655 mmHg 46%
21:00 +13°C° 0 mm 3 m/s 656 mmHg 54%
22:00 +13°C° 0 mm 3 m/s 655 mmHg 56%
23:00 +13°C° 0 mm 2 m/s 655 mmHg 59%

22 Junho, Terça-feira

Tempo Temperatura Precipitação Vento Pressão Humidade
00:00 +13°C° 0 mm 2 m/s 655 mmHg 62%
01:00 +12°C° 0 mm 1 m/s 655 mmHg 64%
02:00 +12°C° 0 mm 1 m/s 655 mmHg 66%
03:00 +11°C° 0 mm 1 m/s 654 mmHg 68%
04:00 +12°C° 0 mm 1 m/s 655 mmHg 67%
05:00 +12°C° 0 mm 1 m/s 655 mmHg 66%
06:00 +13°C° 0 mm 1 m/s 655 mmHg 65%
07:00 +14°C° 0 mm 1 m/s 656 mmHg 60%
08:00 +16°C° 0 mm 2 m/s 656 mmHg 55%
09:00 +17°C° 0 mm 2 m/s 656 mmHg 50%
10:00 +18°C° 0 mm 2 m/s 657 mmHg 46%
11:00 +19°C° 0 mm 2 m/s 657 mmHg 43%
12:00 +20°C° 0 mm 2 m/s 657 mmHg 39%
13:00 +20°C° 0 mm 2 m/s 657 mmHg 40%
14:00 +20°C° 0 mm 3 m/s 657 mmHg 41%
15:00 +20°C° 0 mm 3 m/s 657 mmHg 41%
16:00 +19°C° 0.1 mm 3 m/s 657 mmHg 46%
17:00 +18°C° 0.1 mm 3 m/s 657 mmHg 50%
18:00 +17°C° 0.1 mm 3 m/s 656 mmHg 55%
19:00 +16°C° 0.3 mm 2 m/s 657 mmHg 62%
20:00 +15°C° 0.3 mm 2 m/s 657 mmHg 69%
21:00 +14°C° 0.3 mm 1 m/s 657 mmHg 77%
22:00 +13°C° 0.1 mm 1 m/s 657 mmHg 79%
23:00 +13°C° 0.1 mm 1 m/s 657 mmHg 82%

23 Junho, Quarta-feira

Tempo Temperatura Precipitação Vento Pressão Humidade
00:00 +12°C° 0.1 mm 1 m/s 657 mmHg 84%
01:00 +12°C° 0.4 mm 1 m/s 657 mmHg 85%
02:00 +12°C° 0.4 mm 1 m/s 657 mmHg 87%
03:00 +12°C° 0.4 mm 1 m/s 656 mmHg 88%
04:00 +12°C° 0 mm 2 m/s 657 mmHg 86%
05:00 +12°C° 0 mm 2 m/s 657 mmHg 84%
06:00 +12°C° 0 mm 2 m/s 657 mmHg 82%
07:00 +12°C° 0.2 mm 3 m/s 657 mmHg 77%
08:00 +13°C° 0.2 mm 3 m/s 658 mmHg 72%
09:00 +14°C° 0.2 mm 3 m/s 658 mmHg 67%
10:00 +14°C° 0.1 mm 4 m/s 659 mmHg 62%
11:00 +15°C° 0.1 mm 4 m/s 659 mmHg 58%
12:00 +17°C° 0.1 mm 4 m/s 659 mmHg 53%
13:00 +17°C° 0 mm 5 m/s 659 mmHg 50%
14:00 +17°C° 0 mm 5 m/s 659 mmHg 47%
15:00 +19°C° 0 mm 5 m/s 659 mmHg 44%
16:00 +17°C° 0 mm 6 m/s 659 mmHg 49%
17:00 +17°C° 0 mm 6 m/s 660 mmHg 53%
18:00 +16°C° 0 mm 6 m/s 660 mmHg 57%
19:00 +14°C° 0 mm 5 m/s 660 mmHg 64%
20:00 +13°C° 0 mm 5 m/s 660 mmHg 71%
21:00 +11°C° 0 mm 4 m/s 661 mmHg 78%
22:00 +11°C° 0 mm 3 m/s 661 mmHg 81%
23:00 +10°C° 0 mm 3 m/s 660 mmHg 84%

24 Junho, Quinta-feira

Tempo Temperatura Precipitação Vento Pressão Humidade
00:00 +10°C° 0 mm 2 m/s 660 mmHg 88%
01:00 +9°C° 0 mm 2 m/s 660 mmHg 88%
02:00 +9°C° 0 mm 2 m/s 660 mmHg 87%
03:00 +9°C° 0 mm 2 m/s 660 mmHg 87%
04:00 +9°C° 0 mm 2 m/s 660 mmHg 83%
05:00 +10°C° 0 mm 2 m/s 661 mmHg 79%
06:00 +12°C° 0 mm 1 m/s 661 mmHg 74%
07:00 +13°C° 0 mm 2 m/s 661 mmHg 69%
08:00 +15°C° 0 mm 2 m/s 662 mmHg 63%
09:00 +17°C° 0 mm 2 m/s 662 mmHg 57%
10:00 +18°C° 0 mm 2 m/s 662 mmHg 53%
11:00 +20°C° 0 mm 3 m/s 663 mmHg 49%
12:00 +21°C° 0 mm 3 m/s 663 mmHg 44%
13:00 +21°C° 0 mm 4 m/s 663 mmHg 44%
14:00 +22°C° 0 mm 4 m/s 663 mmHg 43%
15:00 +22°C° 0 mm 4 m/s 663 mmHg 43%
16:00 +21°C° 0 mm 4 m/s 663 mmHg 45%
17:00 +21°C° 0 mm 4 m/s 663 mmHg 48%
18:00 +20°C° 0 mm 4 m/s 663 mmHg 50%
19:00 +18°C° 0 mm 4 m/s 663 mmHg 55%
20:00 +17°C° 0 mm 3 m/s 663 mmHg 60%
21:00 +15°C° 0 mm 2 m/s 663 mmHg 64%
22:00 +15°C° 0 mm 2 m/s 663 mmHg 67%
23:00 +14°C° 0 mm 1 m/s 662 mmHg 70%
Mostrar mais